Regional Weather Roundup
Issued by NWS

Home | Current Version | Previous Version | Text Only | Print | Product List | Glossary Off
Versions: 1 2 3 4 5 6 7 8 9 10 11 12 13 14 15 16 17 18 19 20 21 22 23 24 25 26 27 28 29 30 31 32 33 34 35 36 37 38 39 40 41 42 43 44 45 46 47 48 49 50

000
ASUS43 KMPX 050401
RWRMN
WEATHER ROUNDUP FOR MINNESOTA
NATIONAL WEATHER SERVICE TWIN CITIES/CHANHASSEN MN
1100 PM CDT MON MAY 04 2015


NOTE: "FAIR" INDICATES FEW OR NO CLOUDS BELOW 12,000 FEET WITH NO
SIGNIFICANT WEATHER AND/OR OBSTRUCTIONS TO VISIBILITY. N/A MEANS
CURRENT SKY AND/OR WEATHER CONDITIONS ARE NOT AVAILABLE.

MNZ060>063-068>070-050500-
   Twin Cities Metro

CITY           SKY/WX    TMP DP  RH WIND       PRES   REMARKS
TWIN CITIES    MOCLDY    59  31  34 NE7       30.19R
ST PAUL        PTCLDY    58  33  39 NE3       30.19R
CRYSTAL        PTCLDY    57  31  37 N3        30.18S
BLAINE         PTCLDY    57  30  35 NE3       30.19S
LAKEVILLE      CLEAR     46  39  76 CALM      30.18S
EDEN PRAIRIE   FAIR      58  31  35 NE3       30.18R
SOUTH ST PAUL  PTCLDY    56  35  45 CALM      30.18S
LAKE ELMO      FAIR      50  39  66 N3        30.20S
$$
MNZ001>005-007-008-013>017-022>024-027-028-050500-
   Northwest Minnesota

CITY           SKY/WX    TMP DP  RH WIND       PRES   REMARKS
BEMIDJI        CLEAR     46  28  49 CALM      30.21F
HALLOCK        CLEAR     45  19  36 SE6       30.16S
ROSEAU         CLEAR     45  28  53 SE6       30.19S
WARROAD        CLEAR     46  34  61 CALM      30.20S
THIEF RVR FALL CLEAR     54  25  32 SE6       30.19S
CROOKSTON      CLEAR     55  27  33 SE5       30.19S
FOSSTON        CLEAR     46  25  42 CALM      30.21S
DETROIT LAKES  CLEAR     54  32  43 CALM      30.22R
MOORHEAD       CLEAR     54  27  35 SE3       30.20R
PARK RAPIDS    CLEAR     55  28  35 SE5       30.21S
MAHNOMEN       FAIR      54  28  37 CALM      30.19S
$$
MNZ006-009>011-018-025>026-050500-
   North Central Minnesota

CITY           SKY/WX    TMP DP  RH WIND       PRES   REMARKS
BAUDETTE       CLEAR     44  36  73 CALM      30.20S
FLAG ISLAND    CLEAR     52  36  54 CALM      30.19R
INTL FALLS     CLEAR     36  30  79 CALM      30.21S
WASKISH        CLEAR     39  34  81 CALM      30.21S
BIG FORK       CLEAR     39  27  60 CALM      30.23S
LONGVILLE      FAIR      39  30  70 CALM      30.22S
GRAND RAPIDS   CLEAR     45  25  45 S3        30.23S
CRANE LAKE     CLEAR     36  30  80 CALM      30.24S
ORR            FAIR      45  27  49 CALM      30.21S
COOK           CLEAR     39  34  81 CALM      30.24S
WALKER         FAIR      47  32  55 CALM      30.22S
$$
MNZ012-019>021-037-050500-
   Northeast Minnesota

CITY           SKY/WX    TMP DP  RH WIND       PRES   REMARKS
DULUTH         CLEAR     47  23  38 CALM      30.22S
ELY            CLEAR     39  30  70 CALM      30.24R
HIBBING        CLEAR     37  25  61 N3        30.22S
EVELETH        CLEAR     41  32  70 CALM      30.24S
DULUTH HARBOR  CLEAR     43  37  81 E6        30.23R
TWO HARBORS    CLEAR     48  28  46 N5        30.21S
SILVER BAY     CLEAR     39  27  60 CALM      30.22S
GRAND MARAIS     N/A     41  31  67 CALM      30.23S
G MARAIS ARPRT CLEAR     37  25  60 W6        30.24F
$$
MNZ029>031-032-039>041-046>048-054>057-064-050500-
   West Central Minnesota

CITY           SKY/WX    TMP DP  RH WIND       PRES   REMARKS
FERGUS FALLS   CLEAR     52  32  46 E3        30.20S
WHEATON        PTCLDY    52  27  37 E8        30.20R
MORRIS         PTCLDY    55  30  38 E10       30.18S
ALEXANDRIA     CLEAR     54  29  38 E7        30.21R
ELBOW LAKE     FAIR      56  34  43 E8        30.19S
WADENA         CLEAR     45  32  61 CALM      30.21S
GLENWOOD       CLEAR     52  32  46 NE7       30.21R
APPLETON       PTCLDY    54  28  37 E7        30.17S
BENSON         PTCLDY    54  28  37 E3        30.19R
ORTONVILLE     PTCLDY    55  30  38 NE7       30.17S
MADISON        PTCLDY    52  27  37 E6        30.17S
WILLMAR        FAIR      57  34  41 E7        30.20S
$$
MNZ033>034-036-042>043-049>051-058-059-050500-
   Central Minnesota

CITY           SKY/WX    TMP DP  RH WIND       PRES   REMARKS
ST CLOUD       CLEAR     49  27  42 NE3       30.21R
SAUK CENTRE    FAIR      54  31  42 E6        30.21S
PAYNESVILLE    PTCLDY    47  35  63 CALM      30.21S
AITKIN         CLEAR     39  30  70 CALM      30.21S
PINE RIVER     CLEAR     41  30  65 CALM      30.25S
BRAINERD       CLEAR     43  26  51 CALM      30.22S
STAPLES        CLEAR     48  30  49 CALM      30.22R
LONG PRAIRIE   FAIR      48  30  49 E5        30.22R
LITTLE FALLS   CLEAR     46  27  46 CALM      30.22R
LITCHFIELD     PTCLDY    57  34  41 NE5       30.20S
BUFFALO        PTCLDY    55  31  39 N6        30.20S
MAPLE LAKE     PTCLDY    55  32  40 N3        30.21R
$$
MNZ037-044-045-052-053-050500-
   East Central Minnesota

CITY           SKY/WX    TMP DP  RH WIND       PRES   REMARKS
PRINCETON      CLEAR     52  30  43 N3        30.22R
MORA           CLEAR     43  32  65 CALM      30.23S
CAMBRIDGE      CLEAR     52  36  54 CALM      30.20R
RUSH CITY      MOCLDY    44  29  57 CALM      30.21S
MOOSE LAKE     CLEAR     41  32  70 CALM      30.21R
HINCKLEY       FAIR      41  30  65 N3        30.22R
CLOQUET        CLEAR     43  21  42 CALM      30.22S
MCGREGOR       CLEAR     43  32  65 CALM      30.23R
$$
MNZ071>073-080-081-089-090-097-098-050500-
   Southwest Minnesota

CITY           SKY/WX    TMP DP  RH WIND       PRES   REMARKS
MONTEVIDEO     PTCLDY    54  28  37 SE8       30.18S
GRANITE FALLS  MOCLDY    53  30  41 E3        30.18S
CANBY          MOCLDY    53  27  36 CALM      30.18S
MARSHALL       MOCLDY    59  28  31 E8        30.16S
REDWOOD FALLS  MOCLDY    62  26  25 E7        30.16F
OLIVIA         MOCLDY    54  27  35 E5        30.17S
PIPESTONE      MOCLDY    55  27  33 E5        30.15R
WINDOM         PTCLDY    52  30  43 E6        30.16S
WORTHINGTON    PTCLDY    50  27  40 E6        30.15F
JACKSON        PTCLDY    55  30  38 E9        30.15F
TRACY          PTCLDY    58  32  37 E5        30.16S
SLAYTON        PTCLDY    57  28  33 CALM      30.16S
$$
MNZ065>067-074>077-082>085-091>093-050500-
   South Central Minnesota

CITY           SKY/WX    TMP DP  RH WIND       PRES   REMARKS
MANKATO        MOCLDY    59  36  41 E7        30.16F
NEW ULM        PTCLDY    57  30  35 CALM      30.16F
ST JAMES       PTCLDY    55  27  33 E7        30.16F
FAIRMONT       PTCLDY    57  28  33 NE9       30.14F
GLENCOE        PTCLDY    56  33  41 CALM      30.18S
FARIBAULT      MOCLDY    46  41  81 CALM      30.18S
OWATONNA       MOCLDY    54  34  47 NE5       30.17F
WASECA         MOCLDY    54  36  50 NE6       30.18S
ALBERT LEA     CLOUDY    55  39  54 NE8       30.15F
$$
MNZ078>079-086>088-094>096-050500-
   Southeast Minnesota

CITY           SKY/WX    TMP DP  RH WIND       PRES   REMARKS
ROCHESTER      MOCLDY    55  37  50 NE6       30.18F
RED WING       PTCLDY    48  41  76 CALM      30.17F
STANTON        PTCLDY    48  39  69 CALM      30.17F
DODGE CENTER   MOCLDY    55  36  47 NE6       30.17F
WINONA         MOCLDY    54  45  71 NW3       30.18S
AUSTIN         MOCLDY    54  41  62 NE5       30.15F
PRESTON        MOCLDY    55  38  51 NE5       30.17S
$$
ABBREVIATIONS USED IN REMARKS
   TC - TEMPERATURES IN CELSIUS
  WCI - WIND CHILL INDEX
   HX - HEAT INDEX
  VSB - VISIBILITY
$$



USA.gov is the U.S. government's official web portal to all federal, state and local government web resources and services.